{"data":{"norad_id":55944,"epoch":"2026-05-25T03:08:43.800864Z","epoch_age_seconds":57487,"freshness":"FRESH","line1":"1 55944U 23037AG  26145.13106251  .00000870  00000+0  80675-4 0  9993","line2":"2 55944  69.9997  91.5898 0003396 265.7509  94.3262 14.98333552175432","mean_motion":14.98333552,"eccentricity":0.0003396,"inclination_deg":69.9997,"raan_deg":91.5898,"arg_perigee_deg":265.7509,"mean_anomaly_deg":94.3262,"bstar":8.0675e-5,"rev_number":17543,"period_min":96.106771291203,"perigee_km":569.68462492361,"apogee_km":574.40518847464,"semimajor_km":6950.1819066991,"source":"CELESTRAK","updated_at":"2026-05-25T13:38:17.916973Z"}}